User: anonymous   Login
Location: Newark
(55.7681°N, 37.7103°E)
Time: 21:31:59
(UTC+00:00)
Language:

AO-85 - Orbit

View from above orbital plane
View from above orbital plane
View from above satellite
View from above satellite

Ground track
Ground track

The orbit data is extracted from the following two-line orbital elements,

1 40967U 15058D   19346.29760548  .00000012  00000 0  20517-4 0  8955
2 40967  64.7766 342.1061 0179200 143.9055 217.4306 14.76040903133809
Epoch (UTC): 12 December 2019 07:08:33
Eccentricity: 0.0179200
inclination: 64.7766°
perigee height: 516 km
apogee height: 767 km
right ascension of ascending node: 342.1061°
argument of perigee: 143.9055°
revolutions per day: 14.76040903
mean anomaly at epoch: 217.4306°
orbit number at epoch: 13380

The dashed part of the orbit path shows where the satellite is in the earth's shadow,  

DLR